Theta_e
362 360 360 359 358 357 356 353 352 352 351 351 352 352 352 352 353 352 352 353 354 355 355 356 357 355 353 352 353 354 353 352 352 352 351 350 350 351 349 348 347 347
362 360 359 358 358 358 357 355 352 351 351 351 351 351 353 353 353 353 353 353 354 354 355 357 358 357 354 352 353 353 352 351 351 351 350 350 351 351 350 350 349 348
362 361 360 358 357 357 357 355 354 352 351 350 350 351 352 352 352 353 353 353 353 353 355 356 358 357 356 355 354 354 352 351 352 352 352 351 352 353 353 352 351 349
361 360 359 357 355 355 355 355 355 354 352 350 349 350 350 351 352 352 354 354 354 354 354 355 357 357 356 355 354 354 352 350 352 352 352 351 352 354 355 354 353 352
361 360 359 358 357 356 355 355 354 353 352 351 349 349 350 351 352 351 352 354 355 355 354 356 358 357 353 352 352 351 350 350 350 350 351 353 354 355 355 355 355 354
359 360 359 358 358 357 355 355 354 353 353 352 351 349 349 350 351 351 350 352 353 353 355 357 357 356 352 349 348 347 348 350 351 351 353 354 355 354 355 355 355 356
358 359 359 358 357 357 355 354 354 354 352 352 352 351 350 350 351 351 351 351 351 351 355 357 356 353 352 349 347 347 349 352 353 354 354 354 353 353 354 354 354 355
357 358 358 357 357 356 355 354 354 354 354 353 353 353 353 352 351 352 352 352 352 352 356 358 356 352 350 349 348 348 351 353 354 354 354 354 353 353 354 355 354 355
358 358 359 358 356 355 354 354 354 355 354 355 355 355 355 356 355 355 355 355 356 357 358 357 355 352 351 350 349 349 350 353 354 354 354 353 353 353 354 355 354 354
359 360 361 359 356 354 355 355 355 355 356 357 357 358 358 359 358 356 357 358 358 358 358 356 354 353 352 351 351 350 349 351 353 353 352 352 352 353 353 353 353 354
360 360 361 361 357 355 356 358 357 356 358 358 359 360 361 360 358 357 358 358 358 358 358 357 356 355 354 353 353 352 351 352 353 353 352 352 352 353 352 352 352 353
360 359 360 362 361 359 360 361 361 360 359 359 359 361 361 359 358 358 358 358 358 359 358 359 358 357 356 356 355 354 354 353 353 353 353 353 353 353 352 352 352 352
358 359 360 362 363 362 363 364 364 362 361 360 360 361 361 360 360 359 359 358 359 359 358 358 358 357 357 356 356 355 355 354 353 353 353 352 352 352 352 352 352 352
356 359 360 361 361 361 361 362 362 361 361 362 361 361 361 361 360 359 359 359 358 357 356 356 356 356 356 355 355 355 353 353 353 353 352 352 351 352 352 353 352 351
352 357 360 360 360 360 359 360 360 360 361 361 359 360 360 359 360 359 358 358 357 355 355 355 354 354 354 354 354 354 353 354 353 353 352 352 352 353 353 353 353 352
349 355 360 360 360 359 359 360 360 359 360 359 359 359 359 359 359 357 356 356 355 354 354 353 354 354 353 352 352 353 354 355 354 354 354 353 353 353 353 353 354 353
348 351 356 359 358 358 358 360 359 359 360 358 358 359 358 358 358 356 355 355 354 354 354 353 353 353 352 351 349 350 352 354 354 354 354 355 354 354 353 353 354 354
349 351 356 358 358 357 358 358 358 358 358 357 357 357 357 356 355 354 353 353 353 354 353 353 353 352 351 349 349 349 351 352 353 353 354 354 354 353 353 353 353 354
355 356 358 358 357 357 358 358 357 356 356 356 357 356 355 354 354 353 353 353 353 353 352 352 352 351 350 349 350 351 350 351 352 353 353 353 353 353 353 353 353 353
358 359 359 358 357 357 357 357 356 356 356 355 355 354 353 354 354 353 353 353 352 352 352 352 351 350 349 349 350 350 349 350 352 353 352 352 352 352 352 352 352 351
359 358 358 357 356 356 356 356 355 355 355 355 354 353 353 354 353 352 353 353 352 351 351 352 350 349 348 349 349 349 349 351 352 352 350 350 349 348 348 348 348 348
359 359 358 358 356 356 355 354 354 354 354 354 353 353 353 353 352 353 353 352 352 351 352 351 349 348 349 349 349 348 347 349 349 347 346 345 345 345 346 346 346 346
359 359 358 357 356 355 354 354 354 353 353 354 353 353 353 352 352 353 353 352 351 351 352 351 349 349 349 347 344 343 345 346 345 344 343 344 343 344 344 344 344 342
358 357 356 356 355 354 354 354 354 354 354 354 353 353 353 352 352 352 352 352 352 352 352 350 349 348 345 341 338 339 344 345 344 343 344 343 343 343 343 343 342 340
356 356 355 355 355 355 355 354 354 354 354 353 353 353 352 352 352 352 353 353 352 352 351 349 347 343 339 337 336 339 344 345 344 344 344 343 343 342 341 341 341 341
356 356 356 355 355 355 354 354 354 353 353 353 353 353 352 352 352 353 353 353 352 351 349 348 346 341 337 336 336 338 342 344 344 344 343 342 342 340 340 340 339 340
Wind_Speed
15 14 14 13 12 11 10 10 10 10 10 10 9 9 9 8 8 8 8 8 7 8 8 9 9 9 10 10 10 11 12 12 12 11 11 13 14 14 15 16 17 18
16 15 13 12 12 11 11 10 10 10 10 10 10 9 8 8 8 9 9 8 8 8 8 8 9 9 9 10 10 10 11 12 13 12 12 13 14 14 15 15 16 17
17 16 15 14 13 12 11 11 10 10 10 10 11 11 11 10 9 9 9 8 8 8 7 8 9 9 9 9 10 10 11 11 12 13 13 14 14 13 13 13 14 15
17 16 15 14 13 12 11 11 10 10 10 11 11 12 12 11 10 9 9 9 8 8 8 8 8 9 11 12 12 13 14 14 15 15 15 16 16 14 14 14 14 14
16 16 14 13 12 11 11 11 11 10 10 11 11 12 12 11 10 11 10 10 9 9 9 9 9 10 13 14 13 14 15 15 17 17 16 16 15 15 14 13 13 13
14 14 14 13 12 12 11 11 11 11 11 11 12 12 12 11 12 12 12 11 11 10 9 10 10 10 11 12 13 14 15 14 14 15 15 13 13 14 13 13 12 12
13 13 13 13 12 12 12 11 11 11 11 11 11 11 11 12 13 13 13 12 12 12 10 10 12 12 11 11 13 14 14 13 12 12 13 13 14 14 14 14 13 14
14 13 13 12 12 12 12 12 12 12 12 12 12 11 12 13 14 13 12 12 12 12 11 11 13 14 13 13 14 14 14 12 12 12 13 14 14 14 15 14 14 15
14 13 13 12 12 12 13 13 13 13 13 13 12 11 12 12 12 10 10 10 10 10 11 12 13 14 14 14 15 15 14 13 12 12 13 13 14 14 14 13 14 14
14 13 13 12 12 12 13 12 12 13 13 12 12 10 10 10 10 9 9 10 11 11 12 14 14 14 14 14 14 15 15 14 13 13 13 13 14 13 13 12 13 14
12 12 12 13 12 11 11 11 11 10 9 9 10 9 9 10 10 9 9 10 11 11 12 13 13 12 12 12 12 13 13 13 12 12 13 13 13 12 13 13 13 13
7 9 10 10 9 8 8 8 9 9 8 9 9 9 10 9 9 9 9 9 10 10 11 11 11 10 9 9 9 10 11 11 11 11 11 12 12 12 12 12 12 13
7 6 6 6 7 7 7 7 7 9 9 9 9 9 8 7 7 8 8 8 9 10 10 9 9 9 9 9 9 10 10 10 10 11 11 11 11 11 11 11 12 13
10 6 6 6 7 7 8 8 9 9 8 7 7 7 7 7 7 8 8 8 9 10 9 9 9 9 9 9 9 9 9 10 9 9 9 10 10 10 11 11 12 13
15 10 7 7 7 8 9 10 9 9 8 8 8 7 7 8 8 8 8 8 8 9 8 9 9 8 7 7 7 7 7 7 8 8 8 9 9 9 10 10 11 12
18 13 8 8 8 9 10 9 9 9 8 9 8 8 8 7 7 7 7 7 7 7 7 7 7 6 6 6 7 6 5 5 6 6 7 7 7 7 7 8 9 10
19 17 12 9 9 9 8 8 9 9 8 8 8 7 7 6 5 6 6 6 6 6 6 6 4 4 6 6 7 7 6 4 4 4 4 4 4 5 6 7 7 8
19 18 15 11 10 9 9 9 9 9 8 8 8 7 6 6 5 5 5 5 5 6 5 4 3 4 6 5 5 6 6 4 3 3 3 3 4 5 6 6 7 7
14 15 15 13 11 10 10 10 10 10 9 10 9 8 7 6 6 5 5 5 5 5 4 3 3 5 5 4 3 3 4 3 2 2 2 3 4 4 5 6 6 7
13 14 14 13 12 12 11 11 11 11 11 11 11 9 8 8 7 6 6 6 5 5 4 4 2 3 2 2 1 1 3 3 2 2 2 2 3 3 4 5 5 7
14 14 13 13 13 13 12 13 13 13 12 12 11 10 9 9 8 7 7 7 6 5 5 4 1 1 3 3 3 2 3 2 1 0 1 2 3 3 4 5 5 7
14 14 13 13 14 14 14 14 15 14 14 12 11 10 10 9 8 7 7 7 6 6 6 5 3 4 5 4 3 4 4 3 2 2 3 3 3 4 4 5 6 7
14 13 13 14 15 15 16 16 16 15 13 12 11 11 10 10 8 7 7 7 7 6 7 7 6 6 5 3 3 5 5 3 2 3 3 3 4 4 5 5 6 8
14 13 15 16 16 16 17 17 16 15 12 12 12 11 10 9 9 8 7 7 6 6 7 8 8 7 6 4 4 5 6 4 3 4 4 3 4 4 5 5 7 9
13 14 16 16 16 16 16 16 15 14 13 12 11 10 10 9 9 9 8 7 7 8 8 8 8 7 6 6 6 7 8 5 3 4 4 4 4 5 5 5 7 8
14 15 16 16 15 15 15 14 14 13 12 11 10 10 10 10 9 10 9 8 8 10 10 9 7 7 7 8 8 9 8 6 4 5 5 5 5 5 5 5 6 6
Wind_Direction
211 213 215 216 217 219 219 218 217 218 220 223 222 220 221 222 224 231 234 231 228 231 233 231 233 237 240 242 242 243 247 249 253 256 257 260 261 260 262 263 263 265
209 210 212 214 215 214 218 221 221 220 217 221 229 227 224 224 223 227 233 233 232 233 231 229 233 237 240 241 238 239 244 245 249 252 252 255 259 260 263 266 269 272
208 208 210 214 214 214 217 219 219 223 223 221 225 227 228 230 227 225 229 232 237 238 229 228 232 234 236 236 233 234 237 240 244 248 250 253 257 263 268 269 272 275
209 209 211 215 217 217 217 217 215 217 223 224 225 227 229 231 232 229 229 231 237 239 235 233 228 225 231 235 236 237 236 238 241 243 249 253 254 259 265 263 264 267
209 209 211 212 213 216 216 218 217 216 220 225 228 229 228 230 235 237 236 234 231 234 236 226 211 221 239 245 247 250 252 253 254 253 255 257 256 257 259 258 258 260
207 206 207 207 205 210 215 218 219 219 223 226 227 229 228 228 233 238 241 240 236 239 231 212 212 229 244 251 255 260 263 263 260 257 255 256 260 263 262 260 259 257
205 204 203 204 203 207 215 220 221 222 226 228 227 227 226 228 232 235 239 241 243 247 235 219 230 242 245 251 258 261 262 261 255 252 254 257 261 263 262 261 260 260
201 201 200 201 202 206 214 219 220 221 224 226 226 224 225 229 233 235 238 242 245 245 234 226 240 252 255 259 260 256 253 250 248 248 251 255 258 260 260 262 263 264
198 198 197 198 200 207 215 217 218 220 221 223 223 224 226 229 233 238 242 243 242 240 237 241 252 260 263 264 263 259 253 247 245 246 248 252 258 261 261 263 265 267
194 196 194 197 202 210 215 215 216 220 221 222 225 226 227 231 237 243 244 242 241 243 247 253 260 263 266 267 266 265 261 254 250 250 251 253 255 259 261 262 265 268
193 198 198 200 206 213 217 216 219 222 222 223 227 229 232 238 245 246 247 248 247 247 250 255 258 260 264 265 262 262 260 256 252 252 254 254 254 257 260 262 263 265
204 208 210 205 208 214 215 214 215 218 222 226 228 231 235 240 246 248 248 250 249 248 250 252 253 252 251 249 244 243 244 243 244 248 249 251 253 255 256 258 259 260
229 217 213 205 207 211 207 201 206 215 221 224 226 229 235 239 243 245 246 248 248 249 251 252 252 249 242 236 232 230 230 233 237 240 245 249 253 253 253 254 256 257
240 226 206 200 202 208 208 204 210 218 216 214 219 225 233 238 237 238 242 246 249 251 253 253 251 250 244 237 232 229 229 234 237 239 245 250 254 255 254 255 258 258
234 225 202 198 198 202 211 209 207 209 205 207 214 218 224 231 233 237 240 242 246 250 250 247 245 245 242 233 228 228 232 238 242 245 248 250 254 258 257 257 256 256
227 218 203 203 203 202 207 206 202 202 203 207 211 212 219 225 229 233 236 238 243 245 243 243 242 238 231 225 220 221 232 244 243 243 249 250 254 262 264 263 259 257
219 217 212 209 209 208 204 201 201 200 200 201 204 209 212 211 217 225 229 236 239 235 233 231 223 225 233 232 221 209 212 234 245 247 255 256 260 270 275 277 274 269
211 212 209 201 202 205 199 193 192 192 197 199 198 200 193 187 201 212 213 221 221 216 218 205 193 227 236 223 208 202 196 203 241 255 261 263 268 278 284 287 286 282
200 202 202 197 196 197 192 185 183 188 196 193 184 179 174 175 184 182 175 181 184 182 178 165 190 240 238 210 206 220 195 181 225 251 254 266 276 283 287 289 291 290
192 197 198 193 193 193 187 183 184 186 185 177 171 169 165 163 161 153 151 154 156 153 141 141 198 247 227 184 186 202 166 162 207 237 242 271 283 287 294 297 296 297
191 192 190 188 189 186 179 178 180 176 171 166 164 164 160 154 150 148 149 148 145 145 138 139 183 184 131 124 111 109 125 136 156 279 336 340 331 325 324 324 321 321
190 187 183 180 179 175 172 172 169 165 163 161 157 156 151 147 146 147 149 146 145 149 142 132 123 119 117 109 95 96 96 85 52 33 30 18 4 353 348 342 337 339
182 178 173 167 166 167 166 164 160 158 158 154 151 150 148 146 147 149 151 152 155 155 140 124 119 120 116 101 88 95 92 71 55 60 50 34 21 4 353 345 340 344
174 172 168 161 159 160 159 157 155 153 151 149 149 149 147 146 146 148 151 152 151 143 127 121 126 129 118 94 85 104 110 104 94 89 67 35 24 5 349 343 336 337
166 163 161 157 155 155 153 151 149 147 146 147 148 147 146 146 146 147 149 146 138 127 116 116 122 118 102 89 93 110 115 108 90 78 54 26 13 356 345 344 336 332
157 157 155 153 151 149 147 145 144 144 146 147 147 145 142 143 146 146 143 137 132 125 117 114 113 105 95 96 102 105 102 90 65 45 30 18 3 347 341 346 347 346